Time,TemperatureF,DewpointF,PressureIn,WindDirection,WindDirectionDegrees,WindSpeedMPH,WindSpeedGustMPH,Humidity,HourlyPrecipIn,Conditions,Clouds,dailyrainin,SoftwareType,DateUTC
2013-03-27 00:03:00,34.0,25.0,30.24,WNW,300,7.0,-999.0,69,-99.99,,,-99.99,,2013-03-27 04:03:00,
2013-03-27 00:13:00,34.0,25.0,30.24,West,280,6.0,-999.0,69,-99.99,,,-99.99,,2013-03-27 04:13:00,
2013-03-27 00:23:00,34.0,25.0,30.24,WNW,290,6.0,-999.0,69,-99.99,,,-99.99,,2013-03-27 04:23:00,
2013-03-27 00:33:00,34.0,25.0,30.24,WNW,290,5.0,-999.0,69,-99.99,,,-99.99,,2013-03-27 04:33:00,
2013-03-27 00:42:00,34.0,25.0,30.24,WNW,290,3.0,-999.0,69,-99.99,,,-99.99,,2013-03-27 04:42:00,
2013-03-27 00:52:00,34.0,25.0,30.24,West,280,5.0,-999.0,69,-99.99,,,-99.99,,2013-03-27 04:52:00,
2013-03-27 01:03:00,34.0,25.0,30.24,West,280,5.0,-999.0,69,-99.99,,,-99.99,,2013-03-27 05:03:00,
2013-03-27 01:12:00,32.0,25.0,30.24,West,280,6.0,-999.0,74,-99.99,,,-99.99,,2013-03-27 05:12:00,
2013-03-27 01:23:00,32.0,25.0,30.24,West,280,5.0,-999.0,74,-99.99,,,-99.99,,2013-03-27 05:23:00,
2013-03-27 01:33:00,32.0,25.0,30.24,West,280,5.0,-999.0,74,-99.99,,,-99.99,,2013-03-27 05:33:00,
2013-03-27 01:42:00,30.0,25.0,30.24,West,280,6.0,-999.0,80,-99.99,,,-99.99,,2013-03-27 05:42:00,
2013-03-27 01:52:00,30.0,25.0,30.24,West,280,6.0,-999.0,80,-99.99,,,-99.99,,2013-03-27 05:52:00,
2013-03-27 02:02:00,30.0,25.0,30.24,West,280,6.0,-999.0,80,-99.99,,,-99.99,,2013-03-27 06:02:00,
2013-03-27 02:12:00,30.0,25.0,30.24,WNW,290,7.0,-999.0,80,-99.99,,,-99.99,,2013-03-27 06:12:00,
2013-03-27 02:22:00,32.0,25.0,30.24,West,280,6.0,-999.0,74,-99.99,,,-99.99,,2013-03-27 06:22:00,
2013-03-27 02:32:00,32.0,25.0,30.24,West,280,5.0,-999.0,74,-99.99,,,-99.99,,2013-03-27 06:32:00,
2013-03-27 02:42:00,32.0,25.0,30.24,West,270,6.0,-999.0,74,-99.99,,,-99.99,,2013-03-27 06:42:00,
2013-03-27 02:52:00,32.0,25.0,30.24,West,270,6.0,-999.0,74,-99.99,,,-99.99,,2013-03-27 06:52:00,
2013-03-27 03:02:00,32.0,25.0,30.24,West,270,6.0,-999.0,74,-99.99,,,-99.99,,2013-03-27 07:02:00,
2013-03-27 03:12:00,32.0,25.0,30.24,WNW,290,3.0,-999.0,74,-99.99,,,-99.99,,2013-03-27 07:12:00,
2013-03-27 03:22:00,32.0,25.0,30.24,West,280,5.0,-999.0,74,-99.99,,,-99.99,,2013-03-27 07:22:00,
2013-03-27 03:32:00,30.0,25.0,30.24,West,270,3.0,-999.0,80,-99.99,,,-99.99,,2013-03-27 07:32:00,
2013-03-27 03:42:00,30.0,25.0,30.23,WNW,290,6.0,-999.0,80,-99.99,,,-99.99,,2013-03-27 07:42:00,
2013-03-27 03:53:00,30.0,25.0,30.23,West,270,5.0,-999.0,80,-99.99,,,-99.99,,2013-03-27 07:53:00,
2013-03-27 04:02:00,30.0,25.0,30.23,West,270,5.0,-999.0,80,-99.99,,,-99.99,,2013-03-27 08:02:00,
2013-03-27 04:12:00,30.0,25.0,30.23,West,270,6.0,-999.0,80,-99.99,,,-99.99,,2013-03-27 08:12:00,
2013-03-27 04:22:00,30.0,25.0,30.23,WNW,300,7.0,-999.0,80,-99.99,,,-99.99,,2013-03-27 08:22:00,
2013-03-27 04:32:00,30.0,25.0,30.24,NW,310,5.0,-999.0,80,-99.99,,,-99.99,,2013-03-27 08:32:00,
2013-03-27 04:43:00,30.0,25.0,30.24,WNW,290,7.0,-999.0,80,-99.99,,,-99.99,,2013-03-27 08:43:00,
2013-03-27 04:52:00,30.0,25.0,30.24,WNW,290,7.0,-999.0,80,-99.99,,,-99.99,,2013-03-27 08:52:00,
2013-03-27 05:02:00,30.0,25.0,30.24,WNW,290,7.0,-999.0,80,-99.99,,,-99.99,,2013-03-27 09:02:00,
2013-03-27 05:12:00,28.0,25.0,30.24,West,280,7.0,-999.0,86,-99.99,,,-99.99,,2013-03-27 09:12:00,
2013-03-27 05:22:00,28.0,25.0,30.24,West,280,5.0,-999.0,86,-99.99,,,-99.99,,2013-03-27 09:22:00,
2013-03-27 05:32:00,28.0,25.0,30.24,West,280,6.0,-999.0,86,-99.99,,,-99.99,,2013-03-27 09:32:00,
2013-03-27 05:42:00,28.0,25.0,30.24,West,280,6.0,-999.0,86,-99.99,,,-99.99,,2013-03-27 09:42:00,
2013-03-27 05:52:00,28.0,25.0,30.25,West,280,6.0,-999.0,86,-99.99,,,-99.99,,2013-03-27 09:52:00,
2013-03-27 06:03:00,28.0,25.0,30.25,West,280,6.0,-999.0,86,-99.99,,,-99.99,,2013-03-27 10:03:00,
2013-03-27 06:12:00,28.0,25.0,30.25,West,270,7.0,-999.0,86,-99.99,,,-99.99,,2013-03-27 10:12:00,
2013-03-27 06:23:00,28.0,25.0,30.25,West,270,7.0,-999.0,86,-99.99,,,-99.99,,2013-03-27 10:23:00,
2013-03-27 06:32:00,28.0,25.0,30.25,West,270,6.0,-999.0,86,-99.99,,,-99.99,,2013-03-27 10:32:00,
2013-03-27 06:42:00,28.0,25.0,30.26,West,270,6.0,-999.0,86,-99.99,,,-99.99,,2013-03-27 10:42:00,
2013-03-27 06:52:00,28.0,25.0,30.26,West,280,6.0,-999.0,86,-99.99,,,-99.99,,2013-03-27 10:52:00,
2013-03-27 07:03:00,28.0,25.0,30.26,West,280,6.0,-999.0,86,-99.99,,,-99.99,,2013-03-27 11:03:00,
2013-03-27 07:12:00,28.0,25.0,30.26,West,280,6.0,-999.0,86,-99.99,,,-99.99,,2013-03-27 11:12:00,
2013-03-27 07:22:00,28.0,25.0,30.26,West,280,5.0,-999.0,86,-99.99,,,-99.99,,2013-03-27 11:22:00,
2013-03-27 07:32:00,28.0,25.0,30.26,West,270,6.0,-999.0,86,-99.99,,,-99.99,,2013-03-27 11:32:00,
2013-03-27 07:42:00,28.0,25.0,30.27,West,270,6.0,-999.0,86,-99.99,,,-99.99,,2013-03-27 11:42:00,
2013-03-27 07:52:00,28.0,25.0,30.27,West,280,5.0,-999.0,86,-99.99,,,-99.99,,2013-03-27 11:52:00,
2013-03-27 08:02:00,28.0,25.0,30.27,West,280,5.0,-999.0,86,-99.99,,,-99.99,,2013-03-27 12:02:00,
2013-03-27 08:12:00,28.0,25.0,30.27,West,280,5.0,-999.0,86,-99.99,,,-99.99,,2013-03-27 12:12:00,
2013-03-27 08:23:00,28.0,25.0,30.28,West,280,6.0,-999.0,86,-99.99,,,-99.99,,2013-03-27 12:23:00,
2013-03-27 08:32:00,28.0,25.0,30.28,West,270,7.0,-999.0,86,-99.99,,,-99.99,,2013-03-27 12:32:00,
2013-03-27 08:43:00,28.0,25.0,30.28,West,270,6.0,-999.0,86,-99.99,,,-99.99,,2013-03-27 12:43:00,
2013-03-27 08:52:00,28.0,25.0,30.29,West,280,8.0,-999.0,86,-99.99,,,-99.99,,2013-03-27 12:52:00,
2013-03-27 09:02:00,28.0,25.0,30.29,West,280,8.0,-999.0,86,-99.99,,,-99.99,,2013-03-27 13:02:00,
2013-03-27 09:12:00,28.0,25.0,30.29,West,280,9.0,-999.0,86,-99.99,,,-99.99,,2013-03-27 13:12:00,
2013-03-27 09:22:00,30.0,27.0,30.29,WNW,290,8.0,-999.0,86,-99.99,,,-99.99,,2013-03-27 13:22:00,
2013-03-27 09:32:00,30.0,25.0,30.29,WNW,290,8.0,-999.0,80,-99.99,,,-99.99,,2013-03-27 13:32:00,
2013-03-27 09:42:00,32.0,27.0,30.29,West,280,9.0,-999.0,80,-99.99,,,-99.99,,2013-03-27 13:42:00,
2013-03-27 09:52:00,34.0,27.0,30.30,WNW,300,5.0,-999.0,74,-99.99,,,-99.99,,2013-03-27 13:52:00,
2013-03-27 10:02:00,34.0,27.0,30.30,WNW,300,5.0,-999.0,74,-99.99,,,-99.99,,2013-03-27 14:02:00,
2013-03-27 10:12:00,34.0,27.0,30.30,NW,310,8.0,-999.0,74,-99.99,,,-99.99,,2013-03-27 14:12:00,
2013-03-27 10:22:00,34.0,27.0,30.30,WNW,300,8.0,-999.0,74,-99.99,,,-99.99,,2013-03-27 14:22:00,
2013-03-27 10:32:00,34.0,27.0,30.30,WNW,300,5.0,-999.0,74,-99.99,,,-99.99,,2013-03-27 14:32:00,
2013-03-27 10:42:00,36.0,27.0,30.30,WNW,290,6.0,-999.0,69,-99.99,,,-99.99,,2013-03-27 14:42:00,
2013-03-27 10:52:00,36.0,27.0,30.30,WNW,290,6.0,-999.0,69,-99.99,,,-99.99,,2013-03-27 14:52:00,
2013-03-27 11:02:00,36.0,27.0,30.30,WNW,290,6.0,-999.0,69,-99.99,,,-99.99,,2013-03-27 15:02:00,
2013-03-27 11:12:00,37.0,27.0,30.30,WNW,290,6.0,-999.0,64,-99.99,,,-99.99,,2013-03-27 15:12:00,
2013-03-27 11:22:00,37.0,27.0,30.31,NW,320,7.0,-999.0,64,-99.99,,,-99.99,,2013-03-27 15:22:00,
2013-03-27 11:33:00,39.0,27.0,30.31,NW,310,9.0,-999.0,60,-99.99,,,-99.99,,2013-03-27 15:33:00,
2013-03-27 11:42:00,37.0,27.0,30.31,WNW,290,12.0,16.0,64,-99.99,,,-99.99,,2013-03-27 15:42:00,
2013-03-27 11:52:00,39.0,27.0,30.32,NW,310,10.0,16.0,60,-99.99,,,-99.99,,2013-03-27 15:52:00,
2013-03-27 12:03:00,39.0,27.0,30.32,NW,310,10.0,16.0,60,-99.99,,,-99.99,,2013-03-27 16:03:00,
2013-03-27 12:13:00,39.0,27.0,30.31,West,280,10.0,-999.0,60,-99.99,,,-99.99,,2013-03-27 16:13:00,
2013-03-27 12:22:00,39.0,25.0,30.31,NNW,330,6.0,-999.0,55,-99.99,,,-99.99,,2013-03-27 16:22:00,
2013-03-27 12:33:00,39.0,25.0,30.31,WNW,300,7.0,-999.0,55,-99.99,,,-99.99,,2013-03-27 16:33:00,
2013-03-27 12:42:00,39.0,25.0,30.31,West,280,3.0,-999.0,55,-99.99,,,-99.99,,2013-03-27 16:42:00,
2013-03-27 12:52:00,39.0,25.0,30.30,WNW,300,9.0,-999.0,55,-99.99,,,-99.99,,2013-03-27 16:52:00,
2013-03-27 13:03:00,39.0,25.0,30.30,WNW,300,9.0,-999.0,55,-99.99,,,-99.99,,2013-03-27 17:03:00,
2013-03-27 13:12:00,39.0,25.0,30.30,West,270,7.0,-999.0,55,-99.99,,,-99.99,,2013-03-27 17:12:00,
2013-03-27 13:22:00,39.0,25.0,30.30,WNW,290,6.0,-999.0,55,-99.99,,,-99.99,,2013-03-27 17:22:00,
2013-03-27 13:32:00,39.0,25.0,30.30,WNW,290,10.0,-999.0,55,-99.99,,,-99.99,,2013-03-27 17:32:00,
2013-03-27 13:44:00,39.0,25.0,30.30,West,280,8.0,-999.0,55,-99.99,,,-99.99,,2013-03-27 17:44:00,
2013-03-27 13:52:00,39.0,25.0,30.29,West,270,5.0,-999.0,55,-99.99,,,-99.99,,2013-03-27 17:52:00,
2013-03-27 14:02:00,39.0,25.0,30.29,West,270,5.0,-999.0,55,-99.99,,,-99.99,,2013-03-27 18:02:00,
2013-03-27 14:12:00,43.0,25.0,30.29,WNW,290,6.0,-999.0,48,-99.99,,,-99.99,,2013-03-27 18:12:00,
2013-03-27 14:22:00,41.0,25.0,30.29,WNW,290,9.0,-999.0,52,-99.99,,,-99.99,,2013-03-27 18:22:00,
2013-03-27 14:32:00,43.0,25.0,30.29,West,270,7.0,-999.0,48,-99.99,,,-99.99,,2013-03-27 18:32:00,
2013-03-27 14:42:00,43.0,25.0,30.29,WNW,290,10.0,16.0,48,-99.99,,,-99.99,,2013-03-27 18:42:00,
2013-03-27 14:52:00,41.0,25.0,30.29,West,270,13.0,17.0,52,-99.99,,,-99.99,,2013-03-27 18:52:00,
2013-03-27 15:03:00,41.0,25.0,30.30,West,270,9.0,17.0,52,-99.99,,,-99.99,,2013-03-27 19:03:00,
2013-03-27 15:12:00,43.0,25.0,30.29,West,280,13.0,17.0,48,-99.99,,,-99.99,,2013-03-27 19:12:00,
2013-03-27 15:22:00,43.0,25.0,30.28,WNW,290,10.0,-999.0,48,-99.99,,,-99.99,,2013-03-27 19:22:00,
2013-03-27 15:32:00,43.0,25.0,30.28,West,270,14.0,21.0,48,-99.99,,,-99.99,,2013-03-27 19:32:00,
2013-03-27 15:42:00,43.0,25.0,30.28,West,270,10.0,21.0,48,-99.99,,,-99.99,,2013-03-27 19:42:00,
2013-03-27 15:52:00,43.0,25.0,30.28,WNW,290,12.0,17.0,48,-99.99,,,-99.99,,2013-03-27 19:52:00,
2013-03-27 16:03:00,43.0,25.0,30.28,WNW,290,12.0,17.0,48,-99.99,,,-99.99,,2013-03-27 20:03:00,
2013-03-27 16:12:00,43.0,25.0,30.28,West,280,14.0,21.0,48,-99.99,,,-99.99,,2013-03-27 20:12:00,
2013-03-27 16:22:00,41.0,25.0,30.28,WNW,290,12.0,17.0,52,-99.99,,,-99.99,,2013-03-27 20:22:00,
2013-03-27 16:32:00,41.0,25.0,30.28,West,270,10.0,-999.0,52,-99.99,,,-99.99,,2013-03-27 20:32:00,
2013-03-27 16:42:00,41.0,25.0,30.28,WNW,290,10.0,-999.0,52,-99.99,,,-99.99,,2013-03-27 20:42:00,
2013-03-27 16:52:00,41.0,25.0,30.27,West,270,10.0,16.0,52,-99.99,,,-99.99,,2013-03-27 20:52:00,
2013-03-27 17:02:00,41.0,25.0,30.27,West,270,10.0,16.0,52,-99.99,,,-99.99,,2013-03-27 21:02:00,
2013-03-27 17:12:00,43.0,23.0,30.27,WNW,290,9.0,18.0,45,-99.99,,,-99.99,,2013-03-27 21:12:00,
2013-03-27 17:22:00,43.0,25.0,30.27,WNW,290,9.0,20.0,48,-99.99,,,-99.99,,2013-03-27 21:22:00,
2013-03-27 17:32:00,43.0,25.0,30.27,West,280,14.0,18.0,48,-99.99,,,-99.99,,2013-03-27 21:32:00,
2013-03-27 17:43:00,43.0,23.0,30.27,WNW,290,13.0,18.0,45,-99.99,,,-99.99,,2013-03-27 21:43:00,
2013-03-27 17:52:00,43.0,25.0,30.27,West,280,8.0,20.0,48,-99.99,,,-99.99,,2013-03-27 21:52:00,
2013-03-27 18:03:00,43.0,25.0,30.27,West,280,8.0,20.0,48,-99.99,,,-99.99,,2013-03-27 22:03:00,
2013-03-27 18:12:00,43.0,25.0,30.27,WNW,290,9.0,18.0,48,-99.99,,,-99.99,,2013-03-27 22:12:00,
2013-03-27 18:23:00,41.0,25.0,30.27,West,260,8.0,-999.0,52,-99.99,,,-99.99,,2013-03-27 22:23:00,
2013-03-27 18:33:00,43.0,23.0,30.27,West,280,7.0,-999.0,45,-99.99,,,-99.99,,2013-03-27 22:33:00,
2013-03-27 18:42:00,43.0,23.0,30.27,West,280,10.0,-999.0,45,-99.99,,,-99.99,,2013-03-27 22:42:00,
2013-03-27 18:52:00,41.0,23.0,30.27,West,280,9.0,-999.0,48,-99.99,,,-99.99,,2013-03-27 22:52:00,
2013-03-27 19:02:00,41.0,23.0,30.27,West,280,9.0,-999.0,48,-99.99,,,-99.99,,2013-03-27 23:02:00,
2013-03-27 19:12:00,39.0,23.0,30.27,WNW,290,6.0,-999.0,51,-99.99,,,-99.99,,2013-03-27 23:12:00,
2013-03-27 19:22:00,39.0,23.0,30.27,WNW,290,6.0,-999.0,51,-99.99,,,-99.99,,2013-03-27 23:22:00,
2013-03-27 19:32:00,39.0,23.0,30.27,WNW,290,7.0,-999.0,51,-99.99,,,-99.99,,2013-03-27 23:32:00,
2013-03-27 19:42:00,39.0,23.0,30.27,WNW,290,6.0,-999.0,51,-99.99,,,-99.99,,2013-03-27 23:42:00,
2013-03-27 19:52:00,39.0,23.0,30.28,West,280,5.0,-999.0,51,-99.99,,,-99.99,,2013-03-27 23:52:00,
2013-03-27 20:02:00,39.0,23.0,30.28,West,280,5.0,-999.0,51,-99.99,,,-99.99,,2013-03-28 00:02:00,
2013-03-27 20:12:00,39.0,25.0,30.28,NW,310,3.0,-999.0,55,-99.99,,,-99.99,,2013-03-28 00:12:00,
2013-03-27 20:22:00,37.0,25.0,30.28,North,0,0.0,-999.0,60,-99.99,,,-99.99,,2013-03-28 00:22:00,
2013-03-27 20:32:00,37.0,25.0,30.28,WNW,300,5.0,-999.0,60,-99.99,,,-99.99,,2013-03-28 00:32:00,
2013-03-27 20:43:00,37.0,25.0,30.28,WNW,300,5.0,-999.0,60,-99.99,,,-99.99,,2013-03-28 00:43:00,
2013-03-27 20:52:00,37.0,25.0,30.28,WNW,300,5.0,-999.0,60,-99.99,,,-99.99,,2013-03-28 00:52:00,
2013-03-27 21:02:00,37.0,25.0,30.28,WNW,300,5.0,-999.0,60,-99.99,,,-99.99,,2013-03-28 01:02:00,
2013-03-27 21:12:00,37.0,25.0,30.28,WNW,300,5.0,-999.0,60,-99.99,,,-99.99,,2013-03-28 01:12:00,
2013-03-27 21:22:00,37.0,25.0,30.28,North,0,0.0,-999.0,60,-99.99,,,-99.99,,2013-03-28 01:22:00,
2013-03-27 21:32:00,37.0,25.0,30.28,North,0,0.0,-999.0,60,-99.99,,,-99.99,,2013-03-28 01:32:00,
2013-03-27 21:42:00,37.0,25.0,30.28,North,0,0.0,-999.0,60,-99.99,,,-99.99,,2013-03-28 01:42:00,
2013-03-27 21:52:00,37.0,25.0,30.28,North,0,0.0,-999.0,60,-99.99,,,-99.99,,2013-03-28 01:52:00,
2013-03-27 22:03:00,37.0,25.0,30.28,North,0,0.0,-999.0,60,-99.99,,,-99.99,,2013-03-28 02:03:00,
2013-03-27 22:12:00,36.0,25.0,30.29,WNW,300,3.0,-999.0,64,-99.99,,,-99.99,,2013-03-28 02:12:00,
2013-03-27 22:22:00,37.0,25.0,30.30,WNW,290,3.0,-999.0,60,-99.99,,,-99.99,,2013-03-28 02:22:00,
2013-03-27 22:32:00,37.0,25.0,30.30,WNW,290,3.0,-999.0,60,-99.99,,,-99.99,,2013-03-28 02:32:00,
2013-03-27 22:42:00,37.0,25.0,30.30,WNW,290,3.0,-999.0,60,-99.99,,,-99.99,,2013-03-28 02:42:00,
2013-03-27 22:52:00,37.0,25.0,30.30,WNW,290,3.0,-999.0,60,-99.99,,,-99.99,,2013-03-28 02:52:00,
2013-03-27 23:02:00,37.0,25.0,30.30,WNW,290,3.0,-999.0,60,-99.99,,,-99.99,,2013-03-28 03:02:00,
2013-03-27 23:12:00,37.0,25.0,30.30,WNW,290,3.0,-999.0,60,-99.99,,,-99.99,,2013-03-28 03:12:00,
2013-03-27 23:22:00,36.0,27.0,30.30,WNW,300,3.0,-999.0,69,-99.99,,,-99.99,,2013-03-28 03:22:00,
2013-03-27 23:33:00,36.0,27.0,30.30,North,0,0.0,-999.0,69,-99.99,,,-99.99,,2013-03-28 03:33:00,
2013-03-27 23:43:00,36.0,25.0,30.30,North,0,0.0,-999.0,64,-99.99,,,-99.99,,2013-03-28 03:43:00,
2013-03-27 23:52:00,34.0,27.0,30.30,WNW,300,5.0,-999.0,74,-99.99,,,-99.99,,2013-03-28 03:52:00,